| time (UTC) | temp F | wind direction | speed MPH | gust MPH | rain 1hr in | rain 24hr in | rain mn in | humidity % | barometer mb |
| 20260508131554 | 0 | 233 | 0.0 | 2.0 | 0.00 | 0.00 | 0.00 | 59 | 1021.0 |
| 20260508131030 | 0 | 0 | 0.0 | 3.0 | 0.00 | 0.00 | 0.00 | 61 | 1021.1 |
| 20260508130507 | 0 | 110 | 0.0 | 3.0 | 0.00 | 0.00 | 0.00 | 61 | 1021.2 |
| 20260508125944 | 0 | 133 | 0.0 | 3.0 | 0.00 | 0.00 | 0.00 | 60 | 1021.2 |
| 20260508125421 | 0 | 0 | 0.0 | 4.0 | 0.00 | 0.00 | 0.00 | 57 | 1021.1 |
| 20260508124858 | 0 | 0 | 0.0 | 4.0 | 0.00 | 0.00 | 0.00 | 58 | 1021.0 |
| 20260508124335 | 0 | 65 | 0.0 | 4.0 | 0.00 | 0.00 | 0.00 | 59 | 1021.1 |
| 20260508123812 | 0 | 273 | 0.0 | 3.0 | 0.00 | 0.00 | 0.00 | 58 | 1021.0 |
| 20260508123249 | 0 | 33 | 0.0 | 3.0 | 0.00 | 0.00 | 0.00 | 61 | 1021.1 |
| 20260508122726 | 0 | 99 | 0.0 | 2.0 | 0.00 | 0.00 | 0.00 | 64 | 1021.1 |
| 20260508122203 | 0 | 0 | 0.0 | 2.0 | 0.00 | 0.00 | 0.00 | 65 | 1021.2 |
| 20260508121640 | 0 | 0 | 0.0 | 2.0 | 0.00 | 0.00 | 0.00 | 63 | 1020.9 |
| 20260508121118 | 0 | 154 | 0.0 | 5.0 | 0.00 | 0.00 | 0.00 | 64 | 1021.1 |
| 20260508120554 | 0 | 247 | 1.0 | 5.0 | 0.00 | 0.00 | 0.00 | 66 | 1020.8 |
| 20260508120031 | 0 | 163 | 0.0 | 5.0 | 0.00 | 0.00 | 0.00 | 65 | 1020.9 |
| 20260508115508 | 0 | 0 | 0.0 | 0.0 | 0.00 | 0.00 | 0.00 | 67 | 1021.0 |
| 20260508114945 | 0 | 0 | 0.0 | 0.0 | 0.00 | 0.00 | 0.00 | 67 | 1020.9 |
| 20260508114422 | 0 | 0 | 0.0 | 0.0 | 0.00 | 0.00 | 0.00 | 66 | 1020.8 |
| 20260508113859 | 0 | 0 | 0.0 | 0.0 | 0.00 | 0.00 | 0.00 | 67 | 1020.6 |
| 20260508113336 | 0 | 0 | 0.0 | 0.0 | 0.00 | 0.00 | 0.00 | 67 | 1020.5 |
| 20260508112813 | 0 | 0 | 0.0 | 0.0 | 0.00 | 0.00 | 0.00 | 66 | 1020.5 |
| 20260508112250 | 0 | 0 | 0.0 | 0.0 | 0.00 | 0.00 | 0.00 | 67 | 1020.5 |
| 20260508111727 | 0 | 0 | 0.0 | 0.0 | 0.00 | 0.00 | 0.00 | 67 | 1020.4 |
| 20260508111204 | 0 | 0 | 0.0 | 0.0 | 0.00 | 0.00 | 0.00 | 67 | 1020.3 |
| 20260508110641 | 0 | 0 | 0.0 | 0.0 | 0.00 | 0.00 | 0.00 | 66 | 1020.3 |
| 20260508110119 | 0 | 0 | 0.0 | 0.0 | 0.00 | 0.00 | 0.00 | 67 | 1020.3 |
| 20260508105557 | 0 | 0 | 0.0 | 0.0 | 0.00 | 0.00 | 0.00 | 67 | 1020.2 |
| 20260508105032 | 0 | 0 | 0.0 | 0.0 | 0.00 | 0.00 | 0.00 | 67 | 1020.3 |
| 20260508104509 | 0 | 0 | 0.0 | 0.0 | 0.00 | 0.00 | 0.00 | 67 | 1020.4 |
| 20260508103946 | 0 | 0 | 0.0 | 0.0 | 0.00 | 0.00 | 0.00 | 66 | 1020.3 |
| 20260508103423 | 0 | 0 | 0.0 | 0.0 | 0.00 | 0.00 | 0.00 | 67 | 1020.2 |
| 20260508102900 | 0 | 0 | 0.0 | 0.0 | 0.00 | 0.00 | 0.00 | 67 | 1020.3 |
| 20260508102337 | 0 | 0 | 0.0 | 0.0 | 0.00 | 0.00 | 0.00 | 67 | 1020.2 |
| 20260508101814 | 0 | 0 | 0.0 | 0.0 | 0.00 | 0.00 | 0.00 | 66 | 1020.1 |
| 20260508101251 | 0 | 0 | 0.0 | 0.0 | 0.00 | 0.00 | 0.00 | 67 | 1020.0 |
| 20260508100728 | 0 | 0 | 0.0 | 0.0 | 0.00 | 0.00 | 0.00 | 67 | 1020.1 |
| 20260508100205 | 0 | 0 | 0.0 | 0.0 | 0.00 | 0.00 | 0.00 | 66 | 1019.9 |
| 20260508095643 | 0 | 0 | 0.0 | 0.0 | 0.00 | 0.00 | 0.00 | 66 | 1019.9 |
| 20260508095120 | 0 | 0 | 0.0 | 0.0 | 0.00 | 0.00 | 0.00 | 66 | 1019.8 |
| 20260508094556 | 0 | 0 | 0.0 | 0.0 | 0.00 | 0.00 | 0.00 | 66 | 1020.0 |
| 20260508094033 | 0 | 0 | 0.0 | 0.0 | 0.00 | 0.00 | 0.00 | 66 | 1020.0 |
| 20260508093510 | 0 | 0 | 0.0 | 0.0 | 0.00 | 0.00 | 0.00 | 65 | 1019.8 |
| 20260508092947 | 0 | 0 | 0.0 | 0.0 | 0.00 | 0.00 | 0.00 | 65 | 1019.8 |
| 20260508092424 | 0 | 0 | 0.0 | 0.0 | 0.00 | 0.00 | 0.00 | 65 | 1019.9 |
| 20260508091901 | 0 | 0 | 0.0 | 0.0 | 0.00 | 0.00 | 0.00 | 65 | 1019.9 |
| 20260508091338 | 0 | 0 | 0.0 | 0.0 | 0.00 | 0.00 | 0.00 | 64 | 1019.7 |
| 20260508090815 | 0 | 0 | 0.0 | 0.0 | 0.00 | 0.00 | 0.00 | 64 | 1019.7 |
| 20260508090252 | 0 | 0 | 0.0 | 0.0 | 0.00 | 0.00 | 0.00 | 64 | 1019.8 |
| 20260508085729 | 0 | 0 | 0.0 | 0.0 | 0.00 | 0.00 | 0.00 | 64 | 1019.8 |
| 20260508085206 | 0 | 0 | 0.0 | 1.0 | 0.00 | 0.00 | 0.00 | 64 | 1019.6 |
| 20260508084643 | 0 | 0 | 0.0 | 1.0 | 0.00 | 0.00 | 0.00 | 64 | 1019.5 |
| 20260508084120 | 0 | 0 | 0.0 | 1.0 | 0.00 | 0.00 | 0.00 | 65 | 1019.5 |
| 20260508083557 | 0 | 127 | 0.0 | 3.0 | 0.00 | 0.00 | 0.00 | 65 | 1019.5 |
| 20260508083034 | 0 | 128 | 0.0 | 3.0 | 0.00 | 0.00 | 0.00 | 65 | 1019.5 |
| 20260508082511 | 0 | 128 | 0.0 | 3.0 | 0.00 | 0.00 | 0.00 | 63 | 1019.1 |
| 20260508081950 | 0 | 0 | 0.0 | 0.0 | 0.00 | 0.00 | 0.00 | 66 | 1019.3 |
| 20260508081425 | 0 | 0 | 0.0 | 0.0 | 0.00 | 0.00 | 0.00 | 65 | 1019.4 |
| 20260508080902 | 0 | 119 | 0.0 | 3.0 | 0.00 | 0.00 | 0.00 | 65 | 1019.2 |
| 20260508080339 | 0 | 128 | 0.0 | 3.0 | 0.00 | 0.00 | 0.00 | 66 | 1019.1 |
| 20260508075817 | 0 | 0 | 0.0 | 3.0 | 0.00 | 0.00 | 0.00 | 66 | 1019.2 |
| 20260508075253 | 0 | 134 | 0.0 | 5.0 | 0.00 | 0.00 | 0.00 | 65 | 1019.0 |
| 20260508074730 | 0 | 127 | 0.0 | 5.0 | 0.00 | 0.00 | 0.00 | 66 | 1019.3 |
| 20260508074207 | 0 | 127 | 0.0 | 5.0 | 0.00 | 0.00 | 0.00 | 66 | 1019.3 |
| 20260508073645 | 0 | 128 | 2.0 | 5.0 | 0.00 | 0.00 | 0.00 | 65 | 1019.2 |
| 20260508073121 | 0 | 128 | 2.0 | 5.0 | 0.00 | 0.00 | 0.00 | 66 | 1019.2 |
| 20260508072558 | 0 | 131 | 2.0 | 5.0 | 0.00 | 0.00 | 0.00 | 66 | 1019.2 |
| 20260508072035 | 0 | 123 | 3.0 | 5.0 | 0.00 | 0.00 | 0.00 | 66 | 1019.1 |
| 20260508071512 | 0 | 128 | 3.0 | 5.0 | 0.00 | 0.00 | 0.00 | 66 | 1019.1 |
| 20260508070949 | 0 | 114 | 3.0 | 5.0 | 0.00 | 0.00 | 0.00 | 66 | 1019.0 |
| 20260508070426 | 0 | 124 | 4.0 | 5.0 | 0.00 | 0.00 | 0.00 | 66 | 1019.0 |
| 20260508065903 | 0 | 113 | 3.0 | 6.0 | 0.00 | 0.00 | 0.00 | 66 | 1019.1 |
| 20260508065340 | 0 | 123 | 3.0 | 6.0 | 0.00 | 0.00 | 0.00 | 66 | 1019.1 |
| 20260508064817 | 0 | 131 | 3.0 | 6.0 | 0.00 | 0.00 | 0.00 | 66 | 1019.2 |
| 20260508064253 | 0 | 106 | 4.0 | 7.0 | 0.00 | 0.00 | 0.00 | 66 | 1019.1 |
| 20260508063730 | 0 | 116 | 4.0 | 7.0 | 0.00 | 0.00 | 0.00 | 66 | 1019.0 |
| 20260508063208 | 0 | 110 | 4.0 | 7.0 | 0.00 | 0.00 | 0.00 | 66 | 1018.8 |
| 20260508062645 | 0 | 124 | 4.0 | 7.0 | 0.00 | 0.00 | 0.00 | 66 | 1018.9 |
| 20260508062121 | 0 | 106 | 4.0 | 7.0 | 0.00 | 0.00 | 0.00 | 66 | 1019.0 |
| 20260508061558 | 0 | 91 | 4.0 | 6.0 | 0.00 | 0.00 | 0.00 | 66 | 1018.9 |
| 20260508061035 | 0 | 78 | 3.0 | 6.0 | 0.00 | 0.00 | 0.00 | 66 | 1018.8 |
| 20260508060512 | 0 | 119 | 4.0 | 6.0 | 0.00 | 0.00 | 0.00 | 66 | 1018.8 |
| 20260508055949 | 0 | 99 | 4.0 | 6.0 | 0.00 | 0.00 | 0.00 | 66 | 1018.8 |
| 20260508055426 | 0 | 103 | 3.0 | 6.0 | 0.00 | 0.00 | 0.00 | 66 | 1018.8 |
| 20260508054903 | 0 | 110 | 3.0 | 6.0 | 0.00 | 0.00 | 0.00 | 65 | 1018.8 |
| 20260508054341 | 0 | 107 | 4.0 | 5.0 | 0.00 | 0.00 | 0.00 | 67 | 1018.9 |
| 20260508053817 | 0 | 88 | 0.0 | 5.0 | 0.00 | 0.00 | 0.00 | 67 | 1018.9 |
| 20260508053254 | 0 | 0 | 1.0 | 3.0 | 0.00 | 0.00 | 0.00 | 66 | 1018.8 |
| 20260508052731 | 0 | 103 | 0.0 | 3.0 | 0.00 | 0.00 | 0.00 | 66 | 1018.7 |
| 20260508052208 | 0 | 0 | 0.0 | 0.0 | 0.00 | 0.00 | 0.00 | 66 | 1018.6 |
| 20260508051647 | 0 | 0 | 0.0 | 0.0 | 0.00 | 0.00 | 0.00 | 67 | 1018.6 |
| 20260508051123 | 0 | 0 | 0.0 | 1.0 | 0.00 | 0.00 | 0.00 | 66 | 1018.7 |
| 20260508050600 | 0 | 0 | 0.0 | 1.0 | 0.00 | 0.00 | 0.00 | 66 | 1018.6 |
| 20260508050036 | 0 | 88 | 0.0 | 1.0 | 0.00 | 0.00 | 0.00 | 66 | 1018.7 |
| 20260508045514 | 0 | 0 | 0.0 | 0.0 | 0.00 | 0.00 | 0.00 | 66 | 1018.8 |
| 20260508044950 | 0 | 0 | 0.0 | 4.0 | 0.00 | 0.00 | 0.00 | 66 | 1018.9 |
| 20260508044428 | 0 | 0 | 0.0 | 4.0 | 0.00 | 0.00 | 0.00 | 64 | 1018.8 |
| 20260508043904 | 0 | 107 | 1.0 | 4.0 | 0.00 | 0.00 | 0.00 | 62 | 1018.8 |
| 20260508043342 | 0 | 0 | 0.0 | 0.0 | 0.00 | 0.00 | 0.00 | 65 | 1018.8 |
| 20260508042819 | 0 | 0 | 0.0 | 0.0 | 0.00 | 0.00 | 0.00 | 66 | 1018.8 |
| 20260508042255 | 0 | 0 | 0.0 | 0.0 | 0.00 | 0.00 | 0.00 | 62 | 1018.6 |
| 20260508041732 | 0 | 0 | 0.0 | 3.0 | 0.00 | 0.00 | 0.00 | 65 | 1018.7 |
| 20260508041210 | 0 | 105 | 0.0 | 3.0 | 0.00 | 0.00 | 0.00 | 64 | 1018.6 |
| 20260508040646 | 0 | 0 | 0.0 | 0.0 | 0.00 | 0.00 | 0.00 | 64 | 1018.7 |
| 20260508040123 | 0 | 0 | 0.0 | 0.0 | 0.00 | 0.00 | 0.00 | 62 | 1018.5 |
| 20260508035601 | 0 | 0 | 0.0 | 2.0 | 0.00 | 0.00 | 0.00 | 63 | 1018.6 |
| 20260508035037 | 0 | 0 | 0.0 | 2.0 | 0.00 | 0.00 | 0.00 | 65 | 1018.6 |
| 20260508034514 | 0 | 260 | 0.0 | 2.0 | 0.00 | 0.00 | 0.00 | 64 | 1018.6 |
| 20260508033951 | 0 | 0 | 0.0 | 1.0 | 0.00 | 0.00 | 0.00 | 63 | 1018.5 |
| 20260508033428 | 0 | 264 | 0.0 | 5.0 | 0.00 | 0.00 | 0.00 | 64 | 1018.5 |
| 20260508032905 | 0 | 49 | 0.0 | 5.0 | 0.00 | 0.00 | 0.00 | 64 | 1018.5 |
| 20260508032343 | 0 | 103 | 0.0 | 5.0 | 0.00 | 0.00 | 0.00 | 61 | 1018.4 |
| 20260508031819 | 0 | 114 | 0.0 | 6.0 | 0.00 | 0.00 | 0.00 | 64 | 1018.5 |
| 20260508031256 | 0 | 92 | 0.0 | 6.0 | 0.00 | 0.00 | 0.00 | 64 | 1018.3 |
| 20260508030733 | 0 | 96 | 1.0 | 5.0 | 0.00 | 0.00 | 0.00 | 63 | 1018.3 |
| 20260508030210 | 0 | 120 | 1.0 | 4.0 | 0.00 | 0.00 | 0.00 | 62 | 1018.2 |
| 20260508025647 | 0 | 103 | 0.0 | 6.0 | 0.00 | 0.00 | 0.00 | 62 | 1018.3 |
| 20260508025124 | 0 | 106 | 2.0 | 6.0 | 0.00 | 0.00 | 0.00 | 62 | 1018.2 |
| 20260508024601 | 0 | 92 | 3.0 | 9.0 | 0.00 | 0.00 | 0.00 | 63 | 1018.2 |
| 20260508024039 | 0 | 105 | 2.0 | 9.0 | 0.00 | 0.00 | 0.00 | 61 | 1018.1 |
| 20260508023516 | 0 | 96 | 4.0 | 9.0 | 0.00 | 0.00 | 0.00 | 60 | 1018.5 |
| 20260508022952 | 0 | 135 | 4.0 | 11.0 | 0.00 | 0.00 | 0.00 | 60 | 1018.4 |
| 20260508022429 | 0 | 85 | 5.0 | 11.0 | 0.00 | 0.00 | 0.00 | 62 | 1018.5 |
| 20260508021906 | 0 | 98 | 5.0 | 11.0 | 0.00 | 0.00 | 0.00 | 58 | 1018.5 |
| 20260508021343 | 0 | 67 | 6.0 | 10.0 | 0.00 | 0.00 | 0.00 | 60 | 1018.7 |
| 20260508020820 | 0 | 72 | 5.0 | 10.0 | 0.00 | 0.00 | 0.00 | 58 | 1018.5 |
| 20260508020257 | 0 | 114 | 6.0 | 10.0 | 0.00 | 0.00 | 0.00 | 58 | 1018.4 |
| 20260508015734 | 0 | 92 | 6.0 | 10.0 | 0.00 | 0.00 | 0.00 | 60 | 1018.6 |
| 20260508015211 | 0 | 86 | 5.0 | 10.0 | 0.00 | 0.00 | 0.00 | 58 | 1018.6 |
| 20260508014648 | 0 | 91 | 5.0 | 11.0 | 0.00 | 0.00 | 0.00 | 59 | 1018.6 |
| 20260508014125 | 0 | 96 | 6.0 | 11.0 | 0.00 | 0.00 | 0.00 | 55 | 1018.5 |
| 20260508013602 | 0 | 95 | 7.0 | 10.0 | 0.00 | 0.00 | 0.00 | 54 | 1018.6 |
| 20260508013039 | 0 | 91 | 6.0 | 11.0 | 0.00 | 0.00 | 0.00 | 54 | 1018.6 |
| 20260508012516 | 0 | 91 | 5.0 | 11.0 | 0.00 | 0.00 | 0.00 | 53 | 1018.7 |
| 20260508011953 | 0 | 88 | 4.0 | 11.0 | 0.00 | 0.00 | 0.00 | 53 | 1018.7 |
| 20260508011431 | 0 | 89 | 4.0 | 10.0 | 0.00 | 0.00 | 0.00 | 51 | 1018.7 |
| 20260508010907 | 0 | 99 | 4.0 | 9.0 | 0.00 | 0.00 | 0.00 | 50 | 1018.7 |
| 20260508010346 | 0 | 81 | 4.0 | 9.0 | 0.00 | 0.00 | 0.00 | 51 | 1019.0 |
| 20260508005821 | 0 | 89 | 4.0 | 8.0 | 0.00 | 0.00 | 0.00 | 52 | 1018.9 |
| 20260508005258 | 0 | 96 | 4.0 | 8.0 | 0.00 | 0.00 | 0.00 | 49 | 1018.8 |
| 20260508004735 | 0 | 88 | 4.0 | 11.0 | 0.00 | 0.00 | 0.00 | 50 | 1018.7 |
| 20260508004212 | 0 | 93 | 5.0 | 11.0 | 0.00 | 0.00 | 0.00 | 53 | 1018.9 |
| 20260508003649 | 0 | 58 | 4.0 | 12.0 | 0.00 | 0.00 | 0.00 | 52 | 1018.8 |
| 20260508003126 | 0 | 98 | 6.0 | 12.0 | 0.00 | 0.00 | 0.00 | 53 | 1019.0 |
| 20260508002603 | 0 | 117 | 5.0 | 12.0 | 0.00 | 0.00 | 0.00 | 50 | 1019.1 |
| 20260508002040 | 0 | 86 | 5.0 | 11.0 | 0.00 | 0.00 | 0.00 | 51 | 1019.1 |
| 20260508001517 | 0 | 92 | 6.0 | 11.0 | 0.00 | 0.00 | 0.00 | 51 | 1019.2 |
| 20260508000954 | 0 | 78 | 5.0 | 11.0 | 0.00 | 0.00 | 0.00 | 50 | 1019.3 |
| 20260508000431 | 0 | 114 | 5.0 | 9.0 | 0.00 | 0.00 | 0.00 | 49 | 1019.2 |
| 20260507235908 | 0 | 99 | 7.0 | 11.0 | 0.00 | 0.00 | 0.00 | 48 | 1019.2 |
| 20260507235345 | 0 | 96 | 5.0 | 11.0 | 0.00 | 0.00 | 0.00 | 48 | 1019.4 |
| 20260507234822 | 0 | 93 | 5.0 | 11.0 | 0.00 | 0.00 | 0.00 | 48 | 1019.4 |
| 20260507234259 | 0 | 98 | 5.0 | 13.0 | 0.00 | 0.00 | 0.00 | 47 | 1019.4 |
| 20260507233736 | 0 | 99 | 6.0 | 13.0 | 0.00 | 0.00 | 0.00 | 48 | 1019.3 |
| 20260507233213 | 0 | 86 | 6.0 | 11.0 | 0.00 | 0.00 | 0.00 | 47 | 1019.3 |
| 20260507232650 | 0 | 89 | 5.0 | 14.0 | 0.00 | 0.00 | 0.00 | 47 | 1019.5 |
| 20260507232128 | 0 | 100 | 2.0 | 14.0 | 0.00 | 0.00 | 0.00 | 50 | 1019.5 |
| 20260507231603 | 0 | 109 | 6.0 | 11.0 | 0.00 | 0.00 | 0.00 | 51 | 1019.6 |
| 20260507231040 | 0 | 98 | 5.0 | 11.0 | 0.00 | 0.00 | 0.00 | 47 | 1019.6 |
| 20260507230517 | 0 | 123 | 6.0 | 11.0 | 0.00 | 0.00 | 0.00 | 47 | 1019.6 |
| 20260507225954 | 0 | 100 | 6.0 | 11.0 | 0.00 | 0.00 | 0.00 | 48 | 1019.6 |
| 20260507225431 | 0 | 81 | 4.0 | 11.0 | 0.00 | 0.00 | 0.00 | 48 | 1019.8 |
| 20260507224908 | 0 | 82 | 6.0 | 10.0 | 0.00 | 0.00 | 0.00 | 49 | 1019.8 |
| 20260507224345 | 0 | 78 | 4.0 | 11.0 | 0.00 | 0.00 | 0.00 | 46 | 1019.7 |
| 20260507223822 | 0 | 88 | 3.0 | 11.0 | 0.00 | 0.00 | 0.00 | 48 | 1019.7 |
| 20260507223301 | 0 | 96 | 6.0 | 11.0 | 0.00 | 0.00 | 0.00 | 46 | 1019.9 |
| 20260507222736 | 0 | 126 | 6.0 | 10.0 | 0.00 | 0.00 | 0.00 | 46 | 1019.8 |
| 20260507222213 | 0 | 100 | 5.0 | 10.0 | 0.00 | 0.00 | 0.00 | 48 | 1020.1 |
| 20260507221651 | 0 | 103 | 4.0 | 12.0 | 0.00 | 0.00 | 0.00 | 47 | 1020.1 |
| 20260507221127 | 0 | 81 | 6.0 | 12.0 | 0.00 | 0.00 | 0.00 | 47 | 1020.2 |
| 20260507220604 | 0 | 93 | 3.0 | 10.0 | 0.00 | 0.00 | 0.00 | 48 | 1020.3 |
| 20260507220041 | 0 | 99 | 5.0 | 10.0 | 0.00 | 0.00 | 0.00 | 49 | 1020.5 |
| 20260507215518 | 0 | 126 | 3.0 | 14.0 | 0.00 | 0.00 | 0.00 | 50 | 1020.8 |
| 20260507214956 | 0 | 93 | 3.0 | 14.0 | 0.00 | 0.00 | 0.00 | 50 | 1020.6 |
| 20260507214432 | 0 | 85 | 6.0 | 14.0 | 0.00 | 0.00 | 0.00 | 49 | 1021.0 |
| 20260507213909 | 0 | 81 | 4.0 | 14.0 | 0.00 | 0.00 | 0.00 | 48 | 1020.6 |
| 20260507213347 | 0 | 109 | 2.0 | 14.0 | 0.00 | 0.00 | 0.00 | 50 | 1020.6 |
| 20260507212823 | 0 | 114 | 4.0 | 14.0 | 0.00 | 0.00 | 0.00 | 48 | 1020.9 |
| 20260507212300 | 0 | 93 | 4.0 | 8.0 | 0.00 | 0.00 | 0.00 | 47 | 1020.6 |
| 20260507211737 | 0 | 98 | 5.0 | 11.0 | 0.00 | 0.00 | 0.00 | 47 | 1020.6 |
| 20260507211214 | 0 | 95 | 4.0 | 11.0 | 0.00 | 0.00 | 0.00 | 47 | 1020.8 |
| 20260507210652 | 0 | 98 | 6.0 | 9.0 | 0.00 | 0.00 | 0.00 | 48 | 1020.9 |
| 20260507210128 | 0 | 102 | 3.0 | 9.0 | 0.00 | 0.00 | 0.00 | 47 | 1020.5 |
| 20260507205605 | 0 | 89 | 6.0 | 9.0 | 0.00 | 0.00 | 0.00 | 47 | 1020.6 |
| 20260507205042 | 0 | 112 | 5.0 | 9.0 | 0.00 | 0.00 | 0.00 | 45 | 1020.5 |
| 20260507204519 | 0 | 92 | 3.0 | 9.0 | 0.00 | 0.00 | 0.00 | 46 | 1020.4 |
| 20260507203956 | 0 | 105 | 2.0 | 9.0 | 0.00 | 0.00 | 0.00 | 47 | 1020.5 |
| 20260507203433 | 0 | 98 | 1.0 | 9.0 | 0.00 | 0.00 | 0.00 | 47 | 1020.5 |
| 20260507202910 | 0 | 71 | 3.0 | 10.0 | 0.00 | 0.00 | 0.00 | 46 | 1020.6 |
| 20260507202349 | 0 | 106 | 5.0 | 10.0 | 0.00 | 0.00 | 0.00 | 44 | 1020.8 |
| 20260507201824 | 0 | 102 | 3.0 | 10.0 | 0.00 | 0.00 | 0.00 | 46 | 1020.5 |
| 20260507201301 | 0 | 98 | 3.0 | 8.0 | 0.00 | 0.00 | 0.00 | 47 | 1020.6 |
| 20260507200739 | 0 | 114 | 4.0 | 8.0 | 0.00 | 0.00 | 0.00 | 44 | 1020.8 |
| 20260507200215 | 0 | 105 | 4.0 | 9.0 | 0.00 | 0.00 | 0.00 | 46 | 1020.8 |
| 20260507195652 | 0 | 99 | 3.0 | 9.0 | 0.00 | 0.00 | 0.00 | 46 | 1020.8 |
| 20260507195129 | 0 | 93 | 3.0 | 9.0 | 0.00 | 0.00 | 0.00 | 47 | 1020.9 |
| 20260507194606 | 0 | 106 | 4.0 | 9.0 | 0.00 | 0.00 | 0.00 | 46 | 1021.1 |
| 20260507194043 | 0 | 106 | 3.0 | 9.0 | 0.00 | 0.00 | 0.00 | 47 | 1021.0 |
| 20260507193520 | 0 | 88 | 3.0 | 9.0 | 0.00 | 0.00 | 0.00 | 45 | 1021.1 |
| 20260507192957 | 0 | 88 | 2.0 | 9.0 | 0.00 | 0.00 | 0.00 | 48 | 1021.1 |
| 20260507192434 | 0 | 109 | 4.0 | 11.0 | 0.00 | 0.00 | 0.00 | 47 | 1021.1 |
| 20260507191911 | 0 | 114 | 4.0 | 11.0 | 0.00 | 0.00 | 0.00 | 47 | 1021.2 |
| 20260507191348 | 0 | 107 | 5.0 | 11.0 | 0.00 | 0.00 | 0.00 | 45 | 1021.2 |
| 20260507190825 | 0 | 103 | 1.0 | 9.0 | 0.00 | 0.00 | 0.00 | 45 | 1021.1 |
| 20260507190302 | 0 | 110 | 4.0 | 9.0 | 0.00 | 0.00 | 0.00 | 48 | 1021.1 |
| 20260507185739 | 0 | 91 | 4.0 | 7.0 | 0.00 | 0.00 | 0.00 | 48 | 1021.3 |
| 20260507185216 | 0 | 81 | 3.0 | 9.0 | 0.00 | 0.00 | 0.00 | 47 | 1021.5 |
| 20260507184653 | 0 | 107 | 3.0 | 9.0 | 0.00 | 0.00 | 0.00 | 48 | 1021.5 |
| 20260507184130 | 0 | 95 | 3.0 | 9.0 | 0.00 | 0.00 | 0.00 | 47 | 1021.4 |
| 20260507183607 | 0 | 75 | 2.0 | 9.0 | 0.00 | 0.00 | 0.00 | 48 | 1021.5 |
| 20260507183044 | 0 | 95 | 4.0 | 9.0 | 0.00 | 0.00 | 0.00 | 49 | 1021.4 |
| 20260507182521 | 0 | 98 | 3.0 | 8.0 | 0.00 | 0.00 | 0.00 | 49 | 1021.5 |
| 20260507181958 | 0 | 99 | 4.0 | 9.0 | 0.00 | 0.00 | 0.00 | 48 | 1021.4 |
| 20260507181435 | 0 | 105 | 3.0 | 9.0 | 0.00 | 0.00 | 0.00 | 48 | 1021.5 |
| 20260507180912 | 0 | 113 | 3.0 | 9.0 | 0.00 | 0.00 | 0.00 | 49 | 1021.6 |
| 20260507180349 | 0 | 100 | 2.0 | 9.0 | 0.00 | 0.00 | 0.00 | 50 | 1021.4 |
| 20260507175826 | 0 | 99 | 3.0 | 9.0 | 0.00 | 0.00 | 0.00 | 52 | 1021.4 |
| 20260507175306 | 0 | 86 | 4.0 | 8.0 | 0.00 | 0.00 | 0.00 | 50 | 1021.5 |
| 20260507174740 | 0 | 106 | 4.0 | 8.0 | 0.00 | 0.00 | 0.00 | 50 | 1021.7 |
| 20260507174217 | 0 | 91 | 4.0 | 7.0 | 0.00 | 0.00 | 0.00 | 52 | 1021.7 |
| 20260507173654 | 0 | 100 | 2.0 | 9.0 | 0.00 | 0.00 | 0.00 | 52 | 1021.7 |
| 20260507173131 | 0 | 96 | 3.0 | 9.0 | 0.00 | 0.00 | 0.00 | 51 | 1021.6 |
| 20260507172608 | 0 | 100 | 3.0 | 8.0 | 0.00 | 0.00 | 0.00 | 51 | 1021.7 |
| 20260507172045 | 0 | 100 | 3.0 | 7.0 | 0.00 | 0.00 | 0.00 | 51 | 1021.8 |
| 20260507171522 | 0 | 99 | 3.0 | 7.0 | 0.00 | 0.00 | 0.00 | 51 | 1021.7 |
| 20260507170959 | 0 | 92 | 0.0 | 7.0 | 0.00 | 0.00 | 0.00 | 52 | 1021.7 |
| 20260507170436 | 0 | 93 | 1.0 | 8.0 | 0.00 | 0.00 | 0.00 | 52 | 1021.8 |
| 20260507165913 | 0 | 102 | 0.0 | 8.0 | 0.00 | 0.00 | 0.00 | 55 | 1021.8 |
| 20260507165349 | 0 | 91 | 2.0 | 8.0 | 0.00 | 0.00 | 0.00 | 53 | 1021.7 |
| 20260507164827 | 0 | 100 | 1.0 | 7.0 | 0.00 | 0.00 | 0.00 | 55 | 1021.7 |
| 20260507164304 | 0 | 103 | 1.0 | 7.0 | 0.00 | 0.00 | 0.00 | 55 | 1021.6 |
| 20260507163741 | 0 | 99 | 1.0 | 5.0 | 0.00 | 0.00 | 0.00 | 54 | 1021.9 |
| 20260507163218 | 0 | 110 | 2.0 | 10.0 | 0.00 | 0.00 | 0.00 | 54 | 1021.7 |
| 20260507162655 | 0 | 103 | 4.0 | 10.0 | 0.00 | 0.00 | 0.00 | 53 | 1021.7 |
| 20260507162132 | 0 | 105 | 3.0 | 9.0 | 0.00 | 0.00 | 0.00 | 55 | 1021.6 |
| 20260507161609 | 0 | 249 | 0.0 | 10.0 | 0.00 | 0.00 | 0.00 | 57 | 1021.8 |
| 20260507161046 | 0 | 75 | 1.0 | 10.0 | 0.00 | 0.00 | 0.00 | 57 | 1021.8 |
| 20260507160523 | 0 | 92 | 1.0 | 10.0 | 0.00 | 0.00 | 0.00 | 58 | 1021.5 |
| 20260507155959 | 0 | 327 | 0.0 | 6.0 | 0.00 | 0.00 | 0.00 | 61 | 1021.6 |
| 20260507155437 | 0 | 98 | 0.0 | 7.0 | 0.00 | 0.00 | 0.00 | 57 | 1021.6 |
| 20260507154914 | 0 | 84 | 4.0 | 7.0 | 0.00 | 0.00 | 0.00 | 57 | 1021.7 |
| 20260507154350 | 0 | 107 | 2.0 | 7.0 | 0.00 | 0.00 | 0.00 | 57 | 1021.5 |
| 20260507153827 | 0 | 86 | 0.0 | 5.0 | 0.00 | 0.00 | 0.00 | 60 | 1021.5 |
| 20260507153304 | 0 | 86 | 0.0 | 5.0 | 0.00 | 0.00 | 0.00 | 59 | 1021.6 |
| 20260507152741 | 0 | 88 | 0.0 | 5.0 | 0.00 | 0.00 | 0.00 | 61 | 1021.8 |
| 20260507152218 | 0 | 86 | 0.0 | 8.0 | 0.00 | 0.00 | 0.00 | 59 | 1021.6 |
| 20260507151655 | 0 | 106 | 2.0 | 8.0 | 0.00 | 0.00 | 0.00 | 61 | 1021.6 |
| 20260507151132 | 0 | 88 | 3.0 | 5.0 | 0.00 | 0.00 | 0.00 | 59 | 1021.6 |
| 20260507150610 | 0 | 91 | 1.0 | 5.0 | 0.00 | 0.00 | 0.00 | 60 | 1021.6 |
| 20260507150046 | 0 | 99 | 1.0 | 5.0 | 0.00 | 0.00 | 0.00 | 62 | 1021.5 |
| 20260507145524 | 0 | 123 | 2.0 | 6.0 | 0.00 | 0.00 | 0.00 | 61 | 1021.4 |
| 20260507145000 | 0 | 158 | 0.0 | 6.0 | 0.00 | 0.00 | 0.00 | 63 | 1021.6 |
| 20260507144437 | 0 | 82 | 2.0 | 6.0 | 0.00 | 0.00 | 0.00 | 62 | 1021.6 |
| 20260507143914 | 0 | 119 | 3.0 | 5.0 | 0.00 | 0.00 | 0.00 | 62 | 1021.5 |
| 20260507143353 | 0 | 110 | 0.0 | 5.0 | 0.00 | 0.00 | 0.00 | 62 | 1021.5 |
| 20260507142828 | 0 | 92 | 0.0 | 5.0 | 0.00 | 0.00 | 0.00 | 62 | 1021.5 |
| 20260507142307 | 0 | 100 | 0.0 | 4.0 | 0.00 | 0.00 | 0.00 | 61 | 1021.2 |
| 20260507141743 | 0 | 103 | 0.0 | 3.0 | 0.00 | 0.00 | 0.00 | 61 | 1021.3 |
| 20260507141219 | 0 | 100 | 0.0 | 5.0 | 0.00 | 0.00 | 0.00 | 64 | 1021.3 |
| 20260507140658 | 0 | 106 | 0.0 | 5.0 | 0.00 | 0.00 | 0.00 | 62 | 1021.3 |
| 20260507140136 | 0 | 102 | 0.0 | 3.0 | 0.00 | 0.00 | 0.00 | 64 | 1021.5 |
| 20260507135610 | 0 | 0 | 1.0 | 3.0 | 0.00 | 0.00 | 0.00 | 63 | 1021.2 |
| 20260507135047 | 0 | 0 | 0.0 | 3.0 | 0.00 | 0.00 | 0.00 | 65 | 1021.2 |
| 20260507134524 | 0 | 116 | 0.0 | 3.0 | 0.00 | 0.00 | 0.00 | 64 | 1021.1 |
| 20260507134001 | 0 | 0 | 0.0 | 2.0 | 0.00 | 0.00 | 0.00 | 63 | 1021.1 |
| 20260507133438 | 0 | 0 | 0.0 | 2.0 | 0.00 | 0.00 | 0.00 | 64 | 1021.0 |
| 20260507132915 | 0 | 144 | 0.0 | 4.0 | 0.00 | 0.00 | 0.00 | 64 | 1021.0 |
| 20260507132352 | 0 | 96 | 0.0 | 4.0 | 0.00 | 0.00 | 0.00 | 64 | 1021.1 |
| 20260507131829 | 0 | 95 | 0.0 | 4.0 | 0.00 | 0.00 | 0.00 | 65 | 1021.1 |